RH
77 76 74 74 74 75 75 75 75 75 74 73 70 66 58 66 69 70 69 69 70 70 70 70 71 73 74 73 73 73 72 72 71 70 69 68 64 54 31 14 8 7 7 6 5 4 4 8 15 21 23 25 27 27 26 23 19 15 12 10 10 12 16 40 57 67 70 67 65 65 65 66 67 69 73 76 78 81 86 84 85 88 89 89 88 86 85 81 80 78 74 74 74 74 73 75 77 79 81 80 81 83 84
78 77 76 76 75 75 75 76 76 75 73 74 74 72 70 73 74 74 74 75 75 75 74 75 74 73 73 73 74 75 75 74 74 73 72 72 70 64 51 31 20 16 16 15 14 13 11 15 21 24 19 15 13 14 17 20 21 22 23 20 15 13 17 43 63 75 77 73 71 69 67 66 66 67 68 70 72 74 78 80 83 87 89 89 89 89 88 88 87 86 85 83 81 78 73 75 75 75 76 77 78 79 81
79 78 77 77 76 76 76 76 76 75 75 75 75 76 76 77 78 78 79 80 80 80 80 81 80 77 70 70 72 75 78 78 77 76 75 75 74 73 66 48 35 28 28 27 28 30 32 30 36 40 36 32 29 28 31 34 36 38 39 37 32 28 29 57 74 82 82 79 76 74 71 70 69 69 68 68 69 70 71 73 76 79 83 85 87 89 90 89 89 89 89 89 88 87 84 83 82 81 78 77 77 77 79
78 77 78 75 74 75 77 77 77 77 77 77 78 78 79 80 80 81 82 82 83 83 84 84 84 80 73 71 73 76 81 81 80 79 78 76 74 73 74 60 50 42 37 37 39 45 55 46 47 51 51 49 48 47 47 48 48 48 48 48 45 43 42 66 79 84 84 82 81 79 76 76 75 73 71 71 70 70 70 71 71 73 75 77 80 83 86 88 89 90 90 90 90 89 88 89 88 87 86 84 82 80 80
77 75 78 76 76 78 80 80 80 79 79 80 80 81 82 82 83 83 84 84 85 85 86 86 85 83 78 76 78 81 81 83 84 83 82 79 76 73 70 73 67 57 45 43 45 50 59 57 56 56 56 56 55 55 55 55 55 54 52 52 51 48 45 65 79 84 83 82 81 81 81 81 80 79 78 77 75 74 73 72 72 71 71 72 73 74 77 81 84 87 88 89 89 87 86 88 89 89 89 88 87 87 85
83 82 81 81 81 81 81 80 80 80 80 81 81 82 83 84 85 85 86 86 87 87 88 88 88 87 85 82 83 83 81 85 87 87 87 83 82 79 74 79 76 68 56 49 48 51 59 61 61 60 58 58 57 57 58 57 57 58 57 56 54 51 47 66 78 84 83 82 81 81 81 81 81 81 81 81 80 79 78 78 76 75 74 73 72 71 71 73 76 79 82 85 86 87 88 89 90 90 90 88 88 89 89
84 83 83 82 81 81 80 80 80 80 81 81 82 82 84 85 86 87 87 88 89 89 89 89 89 89 88 84 84 86 81 81 84 89 89 88 86 84 82 83 80 74 65 57 53 53 57 66 67 64 61 60 60 60 59 58 58 60 60 61 58 54 50 67 79 84 83 82 82 82 81 81 81 81 82 81 81 81 81 81 81 80 79 78 76 75 73 72 72 73 75 78 81 84 85 86 88 89 89 89 88 88 88
81 82 83 83 82 81 80 80 80 81 81 81 82 82 84 85 87 87 88 89 90 90 90 90 91 90 86 87 88 88 83 89 89 88 89 88 87 86 87 85 81 76 66 62 59 57 56 67 68 66 64 64 62 61 60 59 59 61 62 63 61 56 53 69 80 84 83 82 82 82 82 82 82 82 83 82 82 81 81 81 82 82 82 82 81 81 79 77 75 73 73 73 75 77 80 83 85 87 89 90 89 89 89
77 76 76 78 80 81 82 82 82 82 82 82 83 84 85 86 87 88 88 89 90 90 91 92 92 91 87 89 90 90 89 90 90 89 88 88 87 86 84 83 80 74 66 65 64 63 60 66 69 69 67 64 63 62 62 60 61 63 64 64 62 59 55 71 81 85 83 82 81 81 83 83 82 82 83 83 82 82 82 82 82 83 83 83 83 83 83 82 81 79 77 75 74 73 74 77 80 82 85 87 88 89 89
75 74 73 75 79 82 85 84 84 84 84 84 85 86 87 87 87 88 88 88 89 89 89 91 93 93 92 89 88 87 87 88 87 87 88 87 86 85 82 78 75 71 67 68 68 67 65 70 71 70 69 65 64 64 66 65 65 66 66 66 64 61 58 73 83 87 84 80 80 81 83 83 83 83 83 83 83 83 82 82 82 82 83 83 83 83 83 83 83 83 83 81 79 76 75 75 76 78 80 82 85 87 88
75 76 76 77 80 83 86 86 86 86 87 87 88 88 88 88 88 88 88 88 87 87 86 89 90 91 92 85 81 79 76 80 84 85 82 80 82 82 74 72 71 70 71 71 71 70 68 72 72 71 70 67 67 67 68 68 69 69 68 68 66 63 62 76 84 87 87 83 82 82 83 83 83 83 84 84 84 84 83 82 82 83 83 84 84 83 83 83 83 83 84 84 83 82 80 78 77 76 77 79 81 83 85
73 77 80 82 84 85 87 88 88 89 89 90 89 89 89 89 89 89 88 88 87 86 85 84 86 87 88 76 73 73 74 74 76 76 75 75 74 73 72 72 73 73 73 73 72 72 71 73 72 70 70 69 70 71 71 71 71 71 71 71 68 65 66 78 84 85 83 85 83 82 84 84 83 83 85 85 85 85 84 83 82 82 83 84 84 84 84 85 84 83 83 84 84 84 84 83 81 80 78 78 79 80 81
71 77 82 85 86 86 85 85 87 89 90 91 91 90 88 90 90 89 87 87 86 86 85 85 86 86 87 75 74 76 76 76 76 76 77 76 76 76 76 76 75 75 74 74 73 73 74 74 72 71 71 72 73 73 71 72 73 73 73 71 69 68 73 81 83 83 81 85 85 83 84 85 84 83 84 85 85 84 85 84 83 83 83 84 84 85 85 85 85 84 84 84 85 85 85 85 85 84 82 81 80 79 79
71 78 83 83 84 84 82 81 82 84 87 88 89 89 86 89 89 88 87 88 87 87 87 87 87 87 88 78 75 76 76 77 77 77 78 78 78 78 77 77 76 76 75 74 75 76 75 73 73 73 73 73 74 74 71 73 73 73 72 71 69 70 76 84 85 83 84 85 86 86 85 85 85 85 85 84 84 83 84 84 84 83 84 84 85 85 85 85 85 85 84 84 84 84 85 85 86 86 85 84 83 81 81
75 81 81 80 81 82 82 81 80 81 82 83 82 81 80 83 86 87 86 86 86 87 88 88 89 89 86 77 75 76 77 77 77 77 78 78 78 78 78 77 77 77 76 76 76 76 73 73 73 74 74 74 74 74 73 74 73 72 70 69 67 68 77 85 86 86 87 86 86 87 87 86 86 86 86 84 82 82 83 84 84 84 85 85 85 85 85 85 85 85 85 83 83 84 84 84 85 86 86 86 85 85 83
75 74 75 78 80 81 82 83 83 83 83 83 80 77 75 75 80 83 80 82 83 85 87 88 89 88 82 77 76 77 77 77 77 77 78 78 78 78 78 78 78 78 78 78 77 75 73 73 73 75 75 73 73 72 73 74 73 71 68 67 65 67 77 83 86 86 86 86 86 86 85 85 86 86 86 84 83 82 83 84 85 86 86 86 86 85 85 85 85 85 84 84 84 83 82 83 84 84 85 86 86 86 86
73 71 74 76 78 80 81 82 82 83 84 83 82 81 79 77 78 80 77 77 78 79 81 83 84 83 77 77 77 78 80 78 78 78 78 78 78 78 78 78 78 78 79 79 77 76 74 73 74 76 76 73 72 72 72 74 72 69 66 64 64 68 77 82 86 87 85 85 84 84 85 86 85 85 85 85 85 85 85 85 85 86 87 87 86 85 85 85 85 84 84 84 84 84 83 82 82 82 83 84 85 86 87
74 72 74 76 77 78 79 80 81 81 82 82 82 82 81 80 81 81 78 77 77 78 78 79 79 78 77 78 79 80 81 79 79 79 79 78 78 77 78 78 78 78 79 77 76 76 75 74 75 76 76 74 72 72 72 73 70 67 65 63 65 70 79 83 85 87 87 84 83 84 84 85 85 85 85 85 86 86 86 85 85 86 87 87 86 86 85 84 84 83 83 83 84 83 83 82 82 81 81 82 83 84 85
74 72 74 75 75 76 77 78 78 79 80 80 81 80 80 79 79 80 80 80 80 80 79 79 79 80 80 80 81 81 79 78 77 77 77 78 78 77 78 78 78 78 77 76 76 76 75 74 75 76 76 74 73 72 72 72 70 66 65 63 67 73 79 81 82 81 82 83 83 83 83 84 84 84 85 84 85 85 85 85 86 87 87 86 85 85 85 84 83 83 83 83 83 83 83 83 83 82 82 82 82 83 83
76 78 74 73 74 74 75 76 77 77 78 79 80 81 81 80 79 80 80 80 81 81 81 80 81 83 84 82 80 79 77 76 76 75 74 76 77 78 79 79 78 78 76 75 75 76 76 76 77 77 76 74 73 72 71 73 70 67 65 64 68 74 77 80 78 76 77 83 84 82 81 83 83 83 84 85 85 85 86 86 86 86 85 84 84 84 84 83 83 83 83 83 83 83 84 83 83 83 83 83 83 82 83
81 82 78 76 75 76 77 78 79 79 81 80 81 83 84 83 81 80 80 81 82 82 82 82 83 84 85 82 79 77 75 75 74 74 73 73 74 76 79 79 79 79 77 77 77 78 78 79 79 78 76 74 72 71 70 72 69 66 65 64 65 68 72 74 76 77 81 84 84 82 78 82 83 83 83 83 83 84 85 86 86 85 84 84 84 84 83 83 83 83 84 83 83 83 83 83 83 83 83 83 83 83 84
80 79 79 78 78 79 79 79 79 80 81 80 81 82 83 80 80 80 80 80 82 83 83 83 83 82 82 81 78 76 75 74 74 73 73 73 74 75 78 79 79 79 78 78 78 79 79 80 79 78 76 74 72 71 70 69 66 64 63 62 61 61 63 66 71 78 83 83 82 81 80 81 82 83 83 82 82 82 83 84 85 85 85 84 84 84 82 83 83 84 84 83 83 83 83 83 83 84 83 84 83 83 83
78 77 76 76 77 77 78 77 78 78 78 78 80 82 81 77 77 78 79 80 80 81 82 83 82 80 80 79 77 75 74 75 75 75 74 75 75 76 77 77 77 77 77 77 78 78 79 79 78 77 75 73 72 71 70 66 63 61 60 59 58 56 55 56 63 70 75 79 81 80 76 77 81 84 83 84 84 85 85 84 85 86 85 85 84 83 82 83 84 84 84 83 82 82 83 83 83 84 84 84 84 84 83
76 76 76 76 75 75 74 74 74 74 74 78 82 84 82 80 78 78 81 81 81 81 83 82 81 79 78 78 77 75 75 76 76 77 77 76 76 76 76 75 75 75 75 75 76 77 78 78 76 74 73 72 70 69 69 63 58 56 56 55 54 52 50 50 54 59 67 72 78 82 80 82 83 84 83 83 84 86 87 86 86 86 85 84 82 82 83 83 84 84 84 83 83 82 83 83 83 84 85 85 85 85 85
75 74 75 76 75 74 73 74 75 76 77 80 82 83 82 81 80 80 82 82 82 82 82 80 79 78 78 76 75 75 76 77 77 78 78 78 77 76 75 74 73 73 74 74 75 76 76 76 74 73 71 69 68 66 66 58 53 51 51 51 49 48 46 45 45 51 68 67 71 78 82 81 83 84 85 83 84 85 87 87 86 84 84 83 82 82 82 83 84 84 84 84 84 84 84 84 84 84 84 84 85 85 86
74 73 75 76 77 77 79 81 82 84 84 83 82 81 79 78 78 80 82 82 81 81 79 79 78 77 76 75 74 74 75 76 77 78 78 79 78 77 75 74 73 73 73 73 74 75 74 73 72 71 69 68 65 63 62 55 49 47 47 47 46 44 43 42 40 45 60 60 64 71 76 81 84 84 81 83 84 84 83 81 80 80 83 82 81 81 81 82 83 83 83 84 85 85 84 83 83 83 84 83 84 85 86
74 75 76 77 79 82 84 84 85 86 85 83 81 80 77 77 78 79 81 79 78 78 78 77 76 75 74 74 74 73 73 75 76 77 78 78 77 76 74 73 73 72 72 72 73 73 73 71 70 68 67 66 64 62 60 54 47 43 43 43 42 41 40 39 38 39 44 52 61 67 71 76 81 84 82 85 85 84 81 80 79 79 80 81 82 81 81 80 81 81 81 83 83 84 84 83 83 83 83 84 84 84 85
76 77 78 81 83 85 85 85 86 85 84 82 80 78 75 77 81 82 78 77 77 76 77 74 74 74 76 77 77 75 74 75 76 76 77 77 77 75 73 73 72 71 71 70 70 70 69 69 68 66 65 64 64 62 59 52 45 40 40 40 39 39 38 37 37 37 36 41 52 63 66 69 76 83 85 85 85 85 84 81 80 80 80 81 80 80 80 80 80 80 81 81 82 83 83 83 83 83 83 83 83 83 83
80 81 82 85 86 87 87 86 86 85 83 81 80 79 77 78 80 81 79 78 78 77 77 75 76 78 79 81 79 77 75 76 76 76 76 77 76 74 73 71 70 70 69 69 68 67 66 65 64 63 62 62 62 62 61 53 45 39 37 37 37 37 36 36 35 35 35 35 41 49 58 63 69 76 81 80 82 84 81 81 82 83 83 81 80 81 82 81 81 80 80 81 81 81 81 81 82 82 82 82 82 82 82
81 81 83 84 86 87 86 86 85 83 81 80 81 81 81 79 77 77 79 79 78 77 75 72 72 74 76 80 78 76 77 77 76 75 75 74 74 73 72 70 68 68 67 67 66 65 63 61 60 59 58 57 58 58 58 54 47 40 35 35 35 35 35 34 34 34 34 35 36 42 56 64 68 72 81 85 87 86 81 80 81 84 84 83 83 82 81 82 81 81 81 81 81 81 81 81 81 81 81 81 81 82 82
81 82 82 80 81 82 84 85 84 82 80 79 80 81 81 77 74 74 78 78 77 75 74 73 73 75 76 78 78 76 78 76 75 74 73 72 72 71 71 68 66 65 65 64 63 62 61 58 56 55 55 55 54 54 53 52 48 42 35 34 33 33 33 32 32 32 33 34 35 39 53 65 69 73 79 85 87 87 87 84 83 82 83 83 82 81 82 82 82 83 83 82 82 81 81 81 81 81 81 81 81 81 81
80 80 80 80 81 83 85 84 82 81 79 77 77 78 76 75 75 77 79 79 78 77 76 77 78 78 78 78 77 77 74 73 72 72 71 70 69 68 68 66 64 63 62 60 59 59 60 56 54 52 52 52 51 51 51 49 46 42 38 33 32 31 31 31 31 32 33 35 36 38 39 51 62 72 79 84 87 87 87 87 85 83 84 85 85 85 85 83 83 83 83 83 82 82 81 81 82 82 82 82 82 81 82
81 81 81 81 82 83 83 82 80 79 79 76 76 76 76 76 78 79 79 79 78 79 79 79 78 78 77 76 76 75 72 70 69 68 67 67 66 65 65 63 62 61 59 57 56 57 57 55 52 51 50 49 49 49 49 48 46 43 39 34 31 30 30 31 31 32 34 37 39 40 40 46 55 64 73 79 83 85 86 85 84 83 83 83 83 83 83 83 83 83 83 83 83 82 81 82 82 82 81 82 82 82 82
81 82 82 81 81 81 81 78 78 79 79 78 79 79 80 80 81 81 80 80 80 81 80 78 77 76 76 75 74 74 72 68 64 62 61 63 64 63 62 60 60 59 57 55 55 55 54 52 50 49 48 47 47 46 46 47 44 40 36 33 31 30 29 31 32 34 37 39 41 42 42 42 45 50 57 64 72 77 82 83 84 84 82 82 82 81 81 81 82 82 82 83 82 82 82 82 82 82 82 81 82 82 82
81 80 80 80 80 79 77 74 77 80 79 80 81 82 82 82 82 82 82 81 81 80 78 76 76 75 75 74 73 72 73 70 64 60 59 60 60 60 58 57 58 57 55 53 53 53 52 50 49 48 48 47 46 45 45 46 42 37 34 32 30 29 29 31 34 37 40 42 42 43 42 42 41 41 42 47 53 60 68 73 77 80 81 80 79 79 79 80 81 82 81 82 82 82 82 81 81 81 81 81 81 81 81
81 81 80 80 79 78 77 77 77 77 78 79 80 81 82 82 82 82 81 80 78 76 76 75 75 75 74 73 71 69 68 68 65 62 61 60 59 58 56 55 56 56 55 53 52 50 48 47 47 47 47 46 44 43 43 43 40 37 35 33 31 30 30 33 36 39 42 42 42 42 41 40 40 39 39 39 41 44 48 52 59 66 72 72 73 75 77 79 80 80 81 81 81 81 82 81 81 81 81 81 81 81 82
82 81 80 79 78 78 76 74 74 74 77 79 80 80 80 80 80 79 78 76 74 73 74 74 73 73 73 70 67 64 63 63 61 59 58 58 58 57 56 56 56 56 55 54 50 45 42 44 45 46 45 44 42 42 42 39 38 37 37 34 32 32 33 36 38 40 41 41 40 39 39 39 39 39 39 39 39 39 39 42 45 47 52 51 54 60 66 73 78 81 81 81 80 80 81 81 80 80 81 81 81 82 82
80 78 78 77 76 77 77 77 77 78 77 78 78 78 77 77 76 74 74 73 72 72 73 73 72 70 69 65 61 58 58 58 56 55 54 55 55 56 56 56 55 54 52 51 47 44 43 44 44 44 43 42 41 41 41 38 38 38 38 37 36 35 35 38 39 39 38 37 35 35 35 36 37 37 38 38 38 38 38 38 39 39 39 40 41 42 48 61 72 79 80 80 79 78 80 79 79 79 80 80 81 81 81
78 78 79 78 77 77 76 77 78 79 79 78 76 75 74 73 72 71 70 70 71 70 69 67 66 65 63 61 58 56 56 55 54 52 53 54 54 54 54 55 54 51 48 46 44 43 44 44 44 44 43 42 41 41 39 39 40 41 41 40 39 38 38 38 38 37 36 35 33 31 31 34 35 37 37 38 38 38 37 37 37 37 36 36 36 37 38 49 62 73 79 79 78 77 77 77 77 77 77 78 78 79 79
77 77 79 79 78 77 77 78 78 78 77 75 73 71 69 69 70 70 68 68 67 64 57 57 57 56 55 56 57 57 56 56 54 53 53 54 54 53 54 56 54 50 46 44 44 44 43 44 44 44 43 43 43 42 40 41 42 42 42 41 41 41 39 37 35 35 38 38 36 33 31 33 35 36 37 37 37 37 36 36 36 35 35 34 34 33 33 39 49 62 76 77 76 74 74 74 75 75 74 75 75 76 77
77 77 78 78 78 78 78 78 77 76 73 71 68 65 63 64 66 67 64 63 61 57 47 46 48 51 50 51 52 53 53 55 56 56 55 54 54 53 54 55 54 51 49 48 48 47 45 45 44 44 44 43 44 44 44 45 45 43 40 40 40 40 38 35 33 34 38 39 37 35 34 34 35 36 36 36 36 36 35 35 34 34 33 33 32 32 31 35 42 52 68 73 74 74 74 72 72 73 73 73 73 74 75
79 78 78 77 78 78 78 76 73 70 67 63 60 57 56 56 56 56 53 55 56 55 45 41 43 48 52 52 52 52 52 53 54 56 56 55 54 54 54 54 53 52 51 51 50 48 46 45 43 43 43 43 45 47 48 48 47 44 40 39 39 38 36 33 33 34 35 35 35 35 35 34 34 34 35 35 34 34 34 33 33 32 32 31 31 31 31 34 39 44 53 61 65 68 72 71 70 70 72 72 72 73 74
79 80 79 77 77 76 74 71 66 62 57 54 51 50 50 48 46 44 43 45 51 55 51 43 41 44 50 53 53 52 51 50 50 52 55 55 54 53 52 52 51 50 50 50 49 47 46 45 45 44 43 45 47 49 50 49 48 46 41 39 38 37 35 32 32 32 32 32 33 34 34 34 34 33 33 32 32 32 31 31 31 30 30 30 30 30 30 33 37 40 43 46 50 54 59 62 65 68 72 71 71 73 73
79 79 78 77 75 72 68 62 57 52 48 46 45 44 44 43 42 41 40 40 45 51 55 47 42 41 44 50 51 51 49 49 49 50 52 53 52 51 50 49 49 48 48 47 46 46 46 46 47 47 47 48 50 51 50 50 48 45 39 37 37 36 33 31 31 31 32 32 33 33 33 33 33 33 32 31 31 30 29 29 28 28 28 28 28 29 29 31 33 35 36 38 40 43 45 48 53 61 70 72 72 72 73
79 78 77 75 72 66 59 52 48 44 42 41 41 41 42 40 40 40 41 40 41 45 54 51 46 41 40 44 47 49 50 50 50 50 51 52 52 51 49 48 48 47 47 45 44 43 44 46 47 49 50 51 51 51 50 47 43 40 36 36 36 35 31 31 31 32 33 33 34 34 33 33 34 33 33 33 33 34 33 30 28 27 27 27 27 27 28 29 29 30 30 32 34 36 39 40 44 52 67 73 75 75 74
78 77 75 71 65 57 49 44 41 39 39 38 39 40 42 41 41 42 43 43 43 44 50 52 51 48 43 42 44 46 48 48 47 48 51 52 53 52 51 49 48 47 47 44 42 41 42 45 47 49 50 50 50 49 48 41 36 33 34 36 36 35 32 32 33 34 35 35 35 35 35 35 35 36 37 39 40 41 40 35 31 28 27 26 26 26 26 27 27 27 27 28 30 32 34 38 43 51 66 73 77 78 75
77 75 71 64 56 47 41 39 38 37 37 37 41 46 49 48 46 46 48 48 49 49 49 49 51 53 53 51 50 49 47 45 45 48 50 52 52 52 51 49 47 46 47 45 43 41 40 44 46 47 48 49 49 47 45 36 32 31 32 35 37 38 37 36 37 38 36 37 37 37 36 37 37 39 43 46 47 47 45 41 38 35 32 30 28 27 26 27 27 27 27 27 28 31 34 39 47 57 64 73 77 78 78
74 71 64 55 46 40 37 36 36 36 36 37 43 49 51 47 45 43 44 45 46 47 45 44 47 51 53 52 53 54 50 47 46 48 50 51 48 46 45 45 44 44 45 46 44 42 40 43 45 47 49 48 46 42 38 32 30 31 34 37 39 41 42 43 43 42 40 40 40 38 37 38 39 42 47 48 49 48 48 47 46 44 40 36 33 30 29 29 29 29 28 29 30 33 37 42 48 55 64 72 76 77 78
71 64 54 45 39 37 36 35 35 36 36 37 41 44 42 40 40 40 40 40 41 42 42 41 43 47 51 46 47 50 54 50 48 48 51 48 44 40 38 39 39 38 37 41 43 43 40 42 44 45 44 42 40 36 31 31 32 36 40 41 42 42 43 44 45 45 43 41 38 36 36 38 41 44 47 48 48 48 48 49 49 49 47 43 39 37 35 35 34 32 31 32 34 37 41 45 48 52 58 65 71 75 77
64 55 44 39 36 36 36 36 36 36 36 37 38 38 38 39 39 40 40 41 41 43 45 46 45 46 50 46 44 46 53 51 50 49 49 43 41 41 39 39 38 36 33 36 38 40 41 41 42 42 41 38 37 36 37 38 39 41 43 43 44 43 43 44 45 46 46 39 35 34 37 41 43 43 45 46 46 47 48 50 51 51 50 48 46 45 44 42 39 37 35 35 37 39 43 45 48 50 52 57 65 73 76
56 46 38 36 36 36 36 36 36 36 36 37 38 39 39 40 40 41 42 43 44 46 50 53 52 51 49 48 47 47 50 49 51 52 45 41 43 46 45 44 40 35 30 29 32 36 40 41 42 43 41 39 39 40 41 42 43 43 44 45 45 45 44 44 45 47 49 46 42 42 46 47 46 44 44 44 45 47 49 51 52 53 53 53 52 51 49 47 44 40 38 38 39 40 42 44 47 49 50 57 65 73 77
48 39 35 36 36 36 36 36 36 36 36 37 38 39 40 41 41 41 42 44 45 47 50 50 52 53 53 53 53 52 50 49 52 53 50 47 47 49 52 48 42 35 29 29 30 33 43 44 45 45 44 41 40 40 40 42 43 44 45 46 46 46 45 46 47 48 50 52 53 55 56 57 56 54 51 50 49 50 51 51 52 52 53 53 53 52 52 51 48 46 43 43 43 44 44 45 46 48 50 56 63 72 80
42 36 36 36 36 36 35 35 35 35 36 38 39 40 40 42 43 43 42 44 45 45 46 49 51 51 50 51 52 54 58 52 51 53 56 53 50 47 42 40 37 35 34 33 30 29 32 33 32 32 33 35 36 38 39 40 41 43 45 45 45 45 45 47 48 50 52 52 53 55 57 58 59 59 58 57 55 53 51 51 51 51 51 51 52 53 54 54 54 52 51 51 52 52 51 49 49 51 55 61 69 77 83
38 36 37 37 36 36 35 35 35 35 36 38 41 44 45 47 48 48 47 47 47 47 47 48 51 52 47 43 41 45 55 54 53 53 57 56 53 46 39 37 36 34 32 33 30 25 21 22 24 26 28 30 34 37 39 40 41 43 45 45 44 44 45 47 49 50 50 50 50 52 53 54 55 56 57 57 56 55 54 52 52 51 51 51 52 53 54 55 56 56 58 60 60 60 59 58 57 58 63 69 76 82 84
37 37 38 37 37 36 36 35 35 35 35 37 40 43 48 50 50 49 48 49 48 49 51 50 51 51 50 45 42 41 42 54 56 54 57 58 56 53 47 43 39 34 27 28 26 24 24 25 28 30 28 33 34 35 35 39 41 43 43 43 43 43 43 44 45 46 45 45 46 48 49 50 51 52 53 53 54 54 54 53 52 52 52 53 54 54 55 55 56 57 59 61 63 64 65 65 65 65 68 75 79 81 80
37 38 38 38 37 37 36 36 35 35 35 37 38 40 43 44 43 43 42 42 42 44 47 51 52 53 54 51 48 44 41 48 53 57 58 59 59 58 56 49 44 39 32 27 25 26 27 31 33 32 27 30 31 30 29 29 32 36 39 39 39 39 39 40 41 43 44 45 46 47 48 48 49 50 51 51 52 52 52 53 54 55 56 57 57 56 56 55 56 56 57 59 61 64 66 68 68 66 66 75 80 81 77
38 39 39 39 38 38 37 36 36 35 35 36 37 38 38 38 38 38 39 39 40 40 40 43 47 51 53 53 52 50 45 42 50 59 60 59 57 56 58 56 52 48 46 39 38 39 37 39 39 35 28 27 28 28 29 31 33 37 40 40 40 39 40 40 41 43 45 46 46 46 47 48 49 49 49 50 51 52 53 55 56 58 59 59 58 57 56 56 56 56 57 58 60 63 66 68 68 68 70 77 79 78 76
39 40 40 39 39 38 37 36 35 35 35 35 35 35 35 35 36 37 38 41 40 37 34 37 42 47 49 50 52 52 48 44 45 51 62 59 56 55 56 62 63 60 55 53 53 53 50 46 43 39 34 31 29 28 29 30 30 32 34 35 37 39 42 42 42 42 43 43 44 45 46 47 48 49 50 50 51 53 55 56 57 58 59 59 58 58 57 57 57 58 58 59 61 64 67 69 70 72 75 78 77 75 77
41 41 41 40 39 38 37 35 34 34 33 33 33 32 32 34 35 34 32 34 33 31 30 33 39 44 45 47 52 55 51 47 47 50 57 57 57 58 58 61 64 65 64 62 61 59 58 53 48 44 41 36 32 29 28 28 28 28 27 28 30 34 41 42 42 42 43 44 45 46 46 47 48 49 49 50 51 52 53 54 55 56 57 57 58 58 58 58 58 59 60 61 63 64 66 68 69 72 75 75 76 77 77
42 42 42 40 39 37 35 33 32 32 31 31 30 30 30 31 29 26 23 25 25 25 27 32 36 40 42 46 53 57 54 49 52 56 56 49 50 55 60 62 62 60 59 59 60 60 61 57 55 52 49 44 39 34 31 28 27 27 28 27 28 31 35 38 39 41 43 45 47 47 47 48 48 49 49 49 50 51 52 53 54 56 57 58 58 59 58 58 58 59 59 60 61 62 63 64 66 70 75 74 75 77 77
43 43 42 40 38 35 33 32 31 30 29 28 27 26 25 24 22 20 20 23 23 23 25 29 33 37 41 45 51 57 60 56 55 57 59 51 47 48 57 59 59 58 58 57 58 59 59 57 57 57 56 52 46 40 35 31 29 27 27 28 29 31 32 34 36 38 40 43 44 46 46 48 48 49 49 50 50 51 52 53 55 56 57 58 58 59 59 59 59 58 58 58 59 60 61 61 64 70 77 77 77 76 77
Wind_Speed
10 10 10 10 10 10 10 10 10 10 10 11 11 11 12 12 12 13 13 13 13 13 13 13 13 13 13 13 13 13 12 12 13 13 13 13 13 13 14 14 14 14 14 14 14 14 13 13 11 10 8 7 7 7 7 7 8 8 8 8 7 7 7 9 11 12 12 12 11 11 11 11 10 10 10 10 10 10 10 10 10 10 10 10 10 10 10 11 10 10 10 10 10 10 10 10 10 10 10 10 10 9 9
10 10 10 10 10 10 10 10 10 10 10 10 11 11 11 12 12 12 13 13 13 13 13 13 13 13 13 13 12 12 12 12 12 12 12 12 12 13 13 14 14 14 14 14 14 15 15 14 12 11 10 10 10 10 10 10 10 10 10 10 9 8 7 9 11 12 12 12 11 11 11 10 10 10 10 10 10 10 10 9 9 9 9 9 9 10 10 10 10 10 10 10 10 10 10 10 10 10 10 10 9 9 9
10 10 10 10 10 10 10 10 10 10 10 11 11 11 11 11 12 12 12 12 12 13 13 12 12 12 13 12 12 12 12 12 12 12 12 12 12 12 12 13 13 13 14 14 14 15 14 13 12 11 11 11 11 11 11 10 10 10 11 10 9 8 8 10 11 12 12 11 11 10 10 10 10 10 10 10 10 10 10 10 10 9 9 9 9 9 9 10 10 10 10 10 10 10 10 10 10 10 9 9 9 9 9
10 10 10 10 10 10 10 10 10 10 10 10 10 11 11 11 11 11 11 11 11 12 12 12 12 12 12 12 12 11 11 11 11 11 11 11 11 11 11 12 12 12 12 13 13 13 11 11 11 10 10 10 9 9 10 9 10 10 10 10 9 8 8 10 11 12 12 11 11 10 10 10 10 10 10 10 10 10 10 10 10 10 10 9 9 9 9 9 9 9 9 10 10 10 10 10 10 10 10 9 9 9 9
10 10 10 9 9 9 9 9 9 9 10 10 10 10 10 10 10 10 10 10 10 11 11 11 11 11 11 11 11 11 11 11 11 10 10 10 10 11 11 11 11 11 11 11 12 11 10 10 9 9 9 9 8 8 9 9 9 9 9 10 9 7 7 9 11 12 12 11 11 10 10 10 10 10 10 10 10 10 9 9 10 10 10 10 10 10 10 9 9 9 9 9 9 10 10 10 10 10 10 10 9 9 9
9 9 9 9 9 9 9 8 8 8 9 9 9 9 9 9 9 9 9 9 9 9 10 10 10 10 10 10 10 10 10 10 10 10 10 10 10 10 10 10 11 11 11 11 11 10 10 9 8 8 8 8 8 8 8 8 8 9 9 9 9 7 6 9 11 12 11 11 10 10 10 10 10 10 10 10 10 9 9 9 9 9 9 9 10 10 10 10 10 10 9 9 9 10 9 9 9 9 9 10 10 9 9
9 8 8 8 8 8 8 8 8 8 8 8 8 8 8 8 8 8 8 8 8 8 9 9 9 9 10 10 10 9 9 9 9 9 9 9 9 9 9 10 10 10 11 11 10 10 9 8 8 8 8 8 8 8 8 8 8 8 8 9 9 8 6 8 10 11 11 11 10 10 10 10 10 10 10 10 10 10 10 10 9 9 9 9 9 9 9 10 10 10 10 10 9 9 10 10 10 9 10 9 10 9 9
8 8 8 8 7 7 7 7 7 7 7 7 7 7 7 7 7 7 7 7 7 8 8 8 8 9 9 9 9 9 8 9 9 9 9 8 8 9 9 9 9 10 10 10 10 9 9 8 8 7 7 7 8 8 8 7 8 8 8 9 9 8 6 8 10 10 11 10 10 10 10 10 10 10 10 10 10 10 10 10 10 10 10 9 9 9 9 9 9 9 10 10 9 9 9 10 10 10 10 9 9 9 9
8 8 8 8 7 7 6 6 6 6 6 6 6 6 6 6 6 6 6 7 7 7 7 7 7 8 8 8 8 8 8 8 8 8 8 8 8 8 8 8 9 9 10 10 10 9 9 8 8 7 7 7 7 8 8 7 8 8 8 9 9 8 7 8 9 10 10 10 10 10 10 11 10 10 10 10 10 10 10 10 10 10 10 10 10 10 10 9 9 9 9 9 9 9 9 9 9 10 10 10 9 9 9
8 8 8 8 7 7 6 5 5 5 5 5 5 5 5 5 5 6 6 6 6 6 7 7 7 7 8 8 8 8 8 8 8 8 8 8 8 8 8 8 9 9 10 10 9 9 9 8 8 8 7 7 8 8 8 8 8 8 8 9 9 9 8 8 9 10 10 10 10 10 10 11 11 11 11 10 10 10 10 10 10 10 10 10 10 10 10 10 10 10 10 10 10 9 9 9 9 10 10 10 10 10 10
6 7 7 7 7 6 6 5 5 4 4 4 4 5 5 5 5 5 5 5 6 6 6 6 6 7 7 7 8 8 9 9 8 8 8 8 8 8 8 9 9 9 9 9 9 9 9 8 8 8 8 7 8 8 8 8 8 8 9 10 10 9 8 9 10 10 10 10 10 10 11 11 11 11 11 11 11 11 11 11 11 11 10 10 11 11 11 11 10 10 10 10 10 10 10 10 10 10 10 10 10 10 10
5 5 6 6 5 5 5 4 4 4 4 4 4 5 4 4 5 5 5 5 5 6 6 6 6 6 6 7 8 8 9 9 9 9 9 9 9 9 9 9 9 9 9 9 10 10 10 8 8 8 8 8 8 8 8 8 8 8 9 10 10 10 9 9 10 10 10 10 10 10 11 11 11 11 11 11 11 11 11 11 11 11 11 11 11 11 11 11 11 11 11 11 11 10 10 10 10 10 10 10 10 10 10
3 4 4 4 4 4 4 4 4 4 4 4 4 5 5 5 5 5 6 6 5 5 5 5 6 6 6 6 7 8 8 9 9 9 9 9 9 9 9 9 9 10 10 10 10 10 10 8 8 8 8 8 8 8 8 8 8 9 9 10 10 10 9 10 10 10 10 11 11 11 11 11 11 11 11 11 11 11 11 11 11 11 11 11 11 11 11 11 11 11 11 11 11 11 11 11 11 11 10 10 10 10 11
2 3 3 3 4 3 3 3 3 3 3 3 3 4 5 5 5 5 6 5 5 5 5 5 5 5 5 6 6 6 7 7 8 8 8 8 9 9 9 10 10 10 10 10 10 9 8 8 8 8 8 8 8 9 9 8 8 9 10 10 10 10 10 10 10 11 11 11 11 12 12 12 12 12 12 12 12 12 12 12 12 11 11 11 12 12 12 12 12 12 12 12 12 12 12 11 11 11 11 11 11 11 11
2 2 2 2 3 3 3 3 3 3 3 3 3 3 3 4 4 4 4 5 5 5 5 5 5 5 5 5 5 6 6 7 7 7 8 8 8 9 9 9 10 10 11 11 9 7 8 8 8 8 8 8 8 8 8 8 9 10 10 11 11 10 10 11 11 11 12 12 12 12 12 12 12 12 12 12 12 12 12 12 12 12 12 12 12 12 12 12 12 12 12 12 12 12 12 12 12 12 12 12 12 12 12
2 2 2 2 2 2 2 2 3 3 3 3 3 3 3 3 3 3 3 3 4 4 4 5 5 5 5 5 6 6 6 7 7 8 8 8 8 8 9 9 9 10 10 10 8 7 8 8 8 8 8 8 7 7 8 8 9 10 11 11 11 11 11 11 11 11 12 12 13 13 13 13 13 13 13 13 13 13 13 13 13 12 12 12 12 12 12 12 12 13 13 12 12 13 13 13 13 13 13 12 12 12 12
3 2 2 2 2 1 1 1 2 2 2 3 3 3 3 3 3 3 3 3 3 4 4 4 4 5 5 6 6 7 7 7 7 8 8 8 8 8 8 9 9 9 8 7 7 8 8 8 8 9 9 8 7 7 8 9 10 11 11 11 11 11 11 11 12 12 12 13 13 13 13 13 13 13 13 13 13 13 13 13 13 13 13 13 13 13 13 13 13 13 13 13 13 13 13 13 13 13 13 13 13 13 13
3 2 2 2 1 1 0 1 1 2 2 3 3 4 4 4 4 4 5 5 5 5 5 5 6 6 7 7 7 7 6 6 7 7 8 9 9 9 9 9 9 8 7 6 7 8 8 8 8 8 9 8 8 7 8 9 11 11 11 12 12 11 11 11 12 12 13 13 13 13 13 13 13 13 13 13 13 13 13 13 13 13 13 13 13 13 13 13 13 13 13 13 13 13 14 14 14 14 14 14 14 14 14
3 2 2 2 1 0 1 1 2 3 3 4 4 5 5 5 5 5 6 6 6 6 7 7 7 7 8 8 8 7 7 7 7 7 7 7 9 10 10 9 9 8 7 7 7 8 8 8 8 8 8 8 8 8 8 10 12 12 12 12 12 11 11 12 12 12 13 13 13 13 13 13 13 13 13 13 13 13 13 13 14 14 14 14 14 14 14 14 14 14 14 14 14 14 14 14 14 14 14 15 15 15 15
3 2 1 0 0 1 2 3 4 5 5 6 6 6 6 7 7 6 7 7 7 7 7 7 7 7 7 8 8 7 7 7 7 7 7 7 7 8 9 9 9 8 7 8 8 8 8 8 8 8 8 8 8 8 7 10 12 13 13 13 12 12 12 12 12 12 13 13 13 13 13 13 13 13 13 13 13 13 13 13 14 14 14 14 14 14 14 14 14 14 14 14 15 15 15 15 14 14 15 15 15 15 15
3 2 1 1 2 2 3 4 4 5 5 7 7 6 6 6 7 7 7 7 7 7 8 8 7 7 7 7 8 8 7 7 7 7 7 7 7 7 8 8 9 8 8 8 8 8 8 9 9 9 9 8 8 8 7 10 12 14 13 13 13 13 12 12 12 13 13 13 13 13 13 13 13 13 13 13 13 13 13 13 14 14 14 14 14 14 14 14 15 15 15 15 15 15 15 15 15 15 15 15 15 16 16
3 3 2 2 2 2 3 3 4 4 5 7 8 7 6 6 6 7 7 7 7 7 7 7 7 7 7 8 8 8 7 7 7 8 8 8 8 8 8 8 8 8 8 8 8 8 9 10 10 10 9 9 9 8 8 12 14 14 14 14 14 14 14 14 13 13 13 13 13 13 13 13 13 13 13 13 13 13 13 13 14 14 14 14 14 14 15 15 15 15 15 15 15 15 15 15 15 16 16 16 16 16 16
3 3 3 3 2 2 3 3 4 4 5 7 8 7 6 6 6 7 7 7 6 6 7 7 7 8 9 8 8 8 7 7 8 8 8 8 8 8 8 8 8 8 8 8 8 8 9 10 11 10 10 9 9 10 10 13 15 15 15 15 15 15 15 15 14 13 13 13 13 13 13 13 13 13 13 13 13 13 13 13 14 14 14 14 14 15 15 15 15 15 15 15 15 16 16 16 16 16 16 16 16 16 16
3 3 3 3 3 3 3 4 5 5 7 8 9 8 6 6 7 7 6 6 6 7 7 8 8 9 9 8 8 7 7 8 9 9 8 8 8 8 8 8 8 8 8 8 8 8 9 10 11 11 10 9 10 10 11 14 16 15 15 16 16 16 16 16 15 14 14 13 13 13 13 13 13 13 13 13 13 13 14 14 14 14 14 14 14 15 15 15 15 15 15 16 16 16 16 16 16 16 16 16 16 16 17
4 4 4 4 5 5 5 6 6 8 9 9 9 7 6 6 6 6 6 6 7 8 8 9 9 9 8 8 8 7 7 7 8 8 9 9 9 9 9 9 9 8 8 8 8 9 9 9 10 11 11 10 11 11 12 15 16 16 16 16 16 16 16 16 16 15 14 14 13 13 13 13 13 13 13 13 13 13 14 14 14 14 14 14 15 15 15 15 15 16 16 16 16 16 16 16 16 16 16 16 17 17 17
5 5 5 5 7 8 8 8 9 9 10 10 9 7 6 6 6 6 6 7 8 9 9 9 8 8 7 7 7 7 7 7 7 7 8 9 10 10 9 9 9 8 8 8 8 9 9 9 10 10 10 11 12 13 14 16 17 17 16 16 16 16 16 16 16 16 15 14 13 13 13 13 13 13 13 13 13 13 13 14 14 14 14 14 15 15 15 15 16 16 16 16 16 16 16 16 16 16 16 17 17 17 17
7 7 6 7 7 8 8 10 10 10 10 9 8 6 6 6 5 6 8 9 9 9 9 8 7 7 7 7 7 7 8 7 7 7 8 9 10 10 9 9 9 8 8 8 9 9 9 10 10 10 10 11 12 13 14 16 17 17 16 16 16 16 16 16 16 16 15 15 14 13 12 12 12 12 12 13 13 13 13 13 13 14 14 14 14 15 15 15 15 16 16 16 16 16 16 16 16 17 17 17 17 17 18
8 8 8 7 8 9 11 11 11 10 9 8 7 6 6 5 5 7 9 9 9 8 7 7 7 6 6 7 7 8 8 7 8 8 8 9 9 9 9 9 9 9 9 9 9 9 9 10 10 11 11 12 12 13 14 16 17 17 16 16 16 16 16 16 16 16 16 15 14 13 12 12 11 11 12 12 12 12 12 12 13 13 13 14 14 14 14 15 15 15 15 16 16 16 16 16 16 17 17 17 17 18 18
8 8 9 9 10 11 12 11 10 8 7 6 7 7 7 6 7 8 9 9 8 6 6 6 6 6 6 7 7 8 7 7 8 8 8 9 9 9 10 10 9 9 9 9 9 9 10 11 11 12 12 12 12 12 13 15 17 17 16 16 16 16 16 16 16 16 16 15 14 13 12 11 10 10 10 11 11 11 11 11 12 12 12 12 13 13 13 14 14 14 15 15 15 16 16 16 16 17 17 17 17 18 18
9 9 10 11 10 10 11 10 8 7 6 6 6 6 7 8 8 9 8 7 6 6 6 7 7 7 7 7 7 7 7 8 9 9 9 9 8 9 9 10 10 9 9 10 10 11 12 12 13 13 13 12 12 12 12 14 16 17 17 16 16 16 16 16 16 16 16 15 14 13 11 10 9 8 9 9 9 10 10 10 11 11 11 11 12 12 13 13 13 14 14 14 15 15 16 16 16 17 17 17 17 17 18
8 9 11 11 10 9 8 7 5 5 6 6 6 6 7 8 9 8 6 5 5 6 6 7 7 7 7 7 7 7 8 10 11 11 10 9 9 9 9 9 10 10 10 11 11 12 13 13 14 14 13 13 13 13 13 14 15 17 18 17 16 16 16 16 16 16 15 14 13 11 9 8 7 7 7 8 8 9 9 9 10 10 10 11 11 11 12 12 12 13 13 14 14 14 15 15 16 16 16 17 17 17 17
8 9 9 9 8 7 6 4 4 4 5 6 7 7 8 9 9 8 6 5 6 6 6 6 7 7 7 7 7 8 12 13 13 12 11 10 10 9 9 10 11 11 11 12 12 12 12 13 14 14 13 13 13 13 13 14 15 16 17 17 17 16 16 16 16 15 14 12 11 9 7 6 6 6 6 7 8 8 8 9 9 10 10 10 11 11 11 11 12 12 12 13 13 13 14 14 15 15 16 16 16 17 17
6 6 6 6 4 3 3 3 3 4 6 7 7 8 9 9 8 7 6 6 6 6 7 7 7 8 8 8 9 11 14 14 14 13 12 11 10 9 9 10 11 11 12 12 12 12 12 13 14 13 13 13 13 13 13 13 14 15 16 17 17 17 16 16 15 14 12 10 8 6 5 4 4 5 5 6 7 8 8 8 9 9 9 10 10 10 11 11 11 11 12 12 12 13 13 13 14 14 15 15 15 16 16
4 3 3 3 2 2 3 3 3 5 8 8 8 8 8 7 8 8 7 7 7 8 10 10 10 10 10 11 11 11 13 14 15 14 13 11 10 9 10 11 10 11 12 12 12 12 12 13 13 13 13 13 13 13 13 13 14 15 16 17 17 16 16 15 13 11 9 7 5 5 4 4 4 5 5 5 6 7 8 8 8 9 9 10 10 10 10 11 11 11 11 11 12 12 12 13 13 13 14 14 15 15 16
4 3 3 3 2 3 3 4 4 6 9 9 9 9 8 7 8 9 9 9 9 9 9 11 11 10 10 11 10 9 8 10 12 13 12 10 9 10 11 10 10 10 12 12 11 11 12 13 13 13 13 13 13 13 12 12 14 15 16 16 16 16 15 13 11 8 6 5 4 4 4 5 5 5 6 6 6 7 7 8 8 8 9 9 10 10 10 10 11 11 11 11 11 11 12 12 12 13 13 14 14 15 15
4 3 3 3 3 4 4 6 7 8 8 9 9 9 9 8 9 10 10 9 7 6 6 8 9 8 8 9 9 8 8 8 9 10 9 9 9 10 10 10 9 10 11 11 12 12 13 13 13 13 12 13 13 13 12 12 14 15 15 15 15 15 13 11 8 6 4 3 4 4 5 6 7 7 7 7 7 7 7 7 8 8 9 9 9 10 10 10 10 11 11 11 11 12 12 12 12 13 13 14 14 14 15
4 5 5 5 5 5 5 7 7 8 8 9 9 9 9 9 10 10 8 6 5 5 6 7 7 8 8 8 8 8 8 8 9 9 9 8 9 10 10 9 9 10 11 11 13 15 15 14 13 12 12 13 13 13 12 13 13 14 14 14 14 13 11 8 5 4 3 4 5 6 8 9 9 9 9 9 8 8 8 8 8 9 9 9 9 10 10 10 10 11 11 12 12 12 12 12 13 13 13 14 14 14 15
6 6 6 6 6 5 4 5 7 8 8 9 9 9 9 9 10 10 8 6 5 5 7 7 7 7 8 8 8 8 8 8 8 8 8 9 9 9 9 9 9 10 11 12 14 15 15 14 13 13 13 13 13 12 13 13 13 13 13 13 12 11 8 5 4 4 5 6 8 9 10 10 11 10 10 10 9 9 9 9 10 10 10 10 11 10 10 10 11 11 11 12 12 12 13 13 13 14 14 14 14 15 15
7 6 6 6 5 4 4 6 8 9 9 9 9 9 9 9 9 9 8 5 5 6 7 7 7 7 7 7 7 8 8 8 9 9 8 9 9 8 8 9 10 12 13 13 14 14 14 13 12 12 13 13 12 12 13 12 12 11 11 11 10 8 6 4 3 5 7 9 11 12 12 12 12 11 11 10 10 10 10 10 11 11 11 12 12 12 11 11 11 12 12 12 13 13 13 14 14 14 15 15 15 15 16
8 7 6 5 4 4 7 9 10 9 9 9 9 9 9 8 7 6 6 5 6 7 8 7 6 6 7 6 6 7 7 8 8 9 8 8 8 8 9 9 11 12 13 14 14 14 14 13 12 12 12 12 12 12 12 11 11 10 10 9 8 6 5 4 4 6 8 10 13 15 15 13 12 11 11 10 10 11 11 11 12 12 13 13 13 13 13 12 12 12 13 13 14 14 14 15 15 15 15 16 16 16 16
8 8 7 5 5 6 9 10 10 10 9 9 9 9 8 7 5 4 5 4 5 7 9 8 7 6 7 7 7 7 8 8 8 8 8 8 8 9 9 10 11 12 13 13 13 13 13 13 13 12 12 12 12 11 11 10 10 10 10 8 6 5 4 4 5 8 10 12 14 15 15 14 12 11 11 11 11 11 12 13 13 14 14 14 14 14 14 14 14 14 14 14 15 15 15 15 16 16 16 16 16 17 17
7 7 6 5 5 8 10 10 10 9 9 8 8 7 7 6 6 5 4 4 4 6 8 8 8 7 7 7 8 8 8 8 7 7 8 8 9 9 10 11 11 11 11 12 12 12 13 13 13 13 12 12 11 10 9 9 9 9 9 7 6 5 5 5 7 10 13 14 15 15 15 14 13 12 11 11 12 13 13 14 14 15 15 15 15 16 16 15 15 15 16 16 16 16 16 17 17 17 17 17 17 17 17
8 7 6 5 6 9 10 10 9 8 7 7 6 6 6 6 6 6 5 4 4 4 7 9 9 8 8 7 7 8 8 8 8 8 8 9 10 10 11 11 11 11 11 11 12 12 13 13 13 12 12 11 10 9 8 8 8 8 7 6 5 5 5 7 10 13 16 16 16 15 14 13 13 13 13 13 14 14 15 15 15 16 16 16 17 17 17 17 17 17 18 18 18 18 18 18 18 18 18 18 18 18 18
9 8 6 5 7 10 10 9 8 7 6 5 5 5 5 5 5 5 6 6 5 4 5 8 10 9 9 7 7 7 8 8 8 9 10 11 11 12 12 12 11 11 11 11 12 12 12 12 12 11 11 9 8 8 8 7 7 7 6 5 5 6 7 10 13 16 17 17 15 14 13 13 13 14 15 15 16 17 17 17 17 17 17 18 18 18 19 19 19 20 20 20 20 20 20 20 19 19 18 18 18 18 18
9 9 8 8 9 10 9 8 6 5 5 4 4 4 5 5 5 6 6 7 7 6 5 7 10 11 11 9 8 8 8 8 10 11 12 12 13 13 13 12 11 10 11 11 12 12 12 11 11 10 8 8 7 7 7 7 6 6 5 5 5 7 10 13 16 18 17 16 14 13 13 13 14 15 16 17 17 18 18 19 20 20 20 20 20 21 21 21 22 22 22 22 22 21 21 20 20 19 19 19 18 18 18
10 10 10 10 10 9 8 6 5 5 4 4 4 4 5 5 6 6 7 7 8 8 6 6 8 11 12 12 11 9 9 10 13 14 14 13 13 13 12 11 10 10 11 12 12 12 12 11 9 8 7 6 6 6 6 6 5 4 4 5 7 10 14 17 18 17 16 15 14 13 13 14 15 16 17 17 16 17 18 20 22 22 23 23 23 23 24 24 24 24 23 23 23 22 21 21 20 19 19 19 18 18 19
11 11 10 10 9 8 7 6 5 5 4 5 4 3 3 5 5 6 6 6 7 7 8 8 8 8 9 10 11 10 11 13 15 15 14 13 12 11 11 11 11 11 11 12 12 12 11 9 8 6 6 6 6 5 5 4 4 4 5 7 9 12 16 17 17 16 15 14 14 14 15 15 16 16 15 15 15 16 18 20 22 23 24 25 25 25 25 25 25 24 24 23 23 22 21 20 20 19 19 19 19 18 19
11 11 10 9 8 7 6 5 5 5 5 5 4 3 3 5 7 7 7 7 7 8 9 10 9 8 7 8 8 9 12 14 15 16 14 13 11 10 10 10 11 12 11 10 10 10 9 8 7 6 5 5 5 4 4 4 5 7 8 10 11 12 13 13 13 14 14 13 14 15 16 16 17 16 15 14 15 16 17 18 20 21 23 24 25 25 25 25 25 24 24 23 23 22 21 20 20 19 19 19 19 19 19
12 11 10 9 8 7 6 6 6 6 6 6 5 6 7 8 9 9 10 10 10 10 11 12 11 9 8 8 7 7 10 13 15 16 13 11 11 12 12 12 13 12 11 9 9 9 8 7 6 5 5 5 4 4 5 7 9 9 9 10 10 10 11 10 10 11 12 13 15 16 17 17 16 16 15 15 16 17 17 18 18 19 21 23 24 24 24 24 24 24 24 23 23 22 21 21 20 20 19 19 19 19 19
12 11 10 8 7 7 6 6 6 6 6 7 7 7 8 9 9 10 10 11 11 11 11 11 11 10 8 8 8 7 8 11 14 13 10 10 10 11 12 14 14 12 9 8 8 8 7 6 5 5 5 5 5 6 7 8 9 9 9 9 10 10 10 9 9 9 11 14 16 16 16 16 16 16 16 17 17 18 18 18 18 18 20 21 21 22 22 22 23 24 24 24 23 23 22 21 21 20 20 19 19 19 19
12 11 9 8 8 7 7 6 6 6 7 7 8 8 8 9 9 10 10 10 11 10 8 7 9 10 9 8 7 8 8 10 10 10 8 9 10 10 9 11 12 11 9 9 8 6 5 4 4 5 5 5 6 7 8 9 9 9 9 9 9 9 9 9 9 9 10 13 14 15 14 14 15 16 17 17 18 19 19 18 18 18 18 18 18 19 20 21 22 23 24 24 24 23 22 22 21 20 19 19 18 18 18
11 10 9 9 8 7 7 7 6 7 7 7 8 8 9 9 10 10 11 10 11 10 9 7 7 8 10 8 7 8 8 9 8 7 7 9 10 10 9 9 7 5 5 10 9 5 3 4 5 5 5 6 8 9 9 9 9 8 8 8 8 9 9 9 9 9 10 11 11 11 11 12 13 14 16 17 17 18 18 18 18 18 18 18 18 18 19 20 22 23 24 24 24 23 22 21 20 19 18 18 17 17 18
11 11 10 9 8 8 7 7 6 7 7 7 7 8 9 9 10 11 11 11 11 11 11 9 8 7 8 8 7 6 6 7 8 7 5 7 9 10 9 5 4 4 5 6 5 2 2 2 1 5 8 10 10 10 9 9 9 8 8 8 8 9 9 9 9 9 10 10 10 10 11 11 12 13 14 15 16 17 17 17 17 17 18 18 18 18 18 19 20 22 23 23 23 22 21 21 20 19 18 17 17 17 18
12 11 10 9 9 8 7 6 6 7 7 7 7 7 7 7 7 8 9 10 10 11 11 11 9 8 8 8 7 6 5 7 8 7 5 5 6 7 6 4 3 5 7 5 4 3 1 4 9 14 14 11 9 8 8 8 8 8 8 8 9 9 9 9 9 9 9 10 10 11 11 12 13 14 14 15 15 16 16 16 17 17 17 18 18 18 18 18 19 20 21 20 20 20 20 19 19 18 18 17 17 18 18
12 11 10 9 8 7 7 6 7 7 8 8 8 7 6 5 6 7 8 8 9 9 9 10 9 7 7 8 8 8 7 7 8 7 5 4 4 4 4 4 4 5 6 4 3 3 4 8 14 17 14 8 6 7 8 8 7 8 8 9 10 10 9 9 9 10 10 11 11 12 13 13 14 14 14 15 15 15 15 16 16 16 17 17 18 18 18 19 19 19 18 17 16 17 17 17 18 18 18 18 18 19 19
12 11 10 9 8 7 6 6 7 7 8 8 8 8 7 8 9 10 11 11 11 11 9 8 8 7 6 7 7 8 8 6 6 6 4 4 3 3 3 3 3 3 3 3 3 3 5 12 14 11 10 7 7 9 11 11 10 10 10 11 11 11 11 10 10 11 11 12 13 13 13 13 14 14 14 14 14 15 15 15 16 16 16 17 17 17 18 18 18 17 17 16 16 15 16 16 18 19 19 19 19 19 19
12 11 10 9 8 7 7 7 7 8 8 9 9 9 10 11 11 11 11 11 11 11 11 10 9 8 8 7 7 7 8 7 6 5 4 4 5 4 3 3 3 2 3 3 3 5 9 13 9 4 8 12 12 11 12 12 11 10 9 10 10 11 11 11 11 11 12 12 13 13 13 13 13 14 14 14 14 14 15 15 15 15 16 16 16 17 17 17 17 17 17 17 16 16 17 18 20 20 20 19 19 19 19
13 11 10 9 8 7 7 7 7 8 9 9 10 10 11 11 10 10 9 9 10 12 13 12 10 9 9 9 8 7 7 8 6 5 5 6 6 4 3 4 4 5 6 5 5 7 9 9 6 5 7 12 14 13 11 11 11 11 10 10 11 10 10 11 12 12 13 14 14 14 14 13 13 13 13 13 14 14 14 15 15 15 15 16 16 16 16 17 17 18 18 18 18 18 19 20 20 20 19 19 19 20 20
12 11 10 9 8 7 7 7 8 8 9 10 10 10 10 9 9 10 10 10 11 12 13 12 10 9 9 10 8 6 6 7 7 6 5 6 5 4 3 3 4 5 6 7 8 8 8 5 4 5 6 8 11 14 13 12 11 12 13 13 12 11 10 11 13 14 14 14 14 13 13 13 12 12 13 13 13 14 14 15 15 15 15 16 16 16 16 17 17 18 19 19 20 20 19 19 19 19 19 20 20 21 21
12 11 10 9 8 7 7 8 8 9 9 10 10 10 9 9 11 12 13 12 12 13 12 10 10 10 10 9 7 6 6 7 7 5 5 6 5 3 2 3 4 6 7 8 8 9 8 8 7 5 5 6 8 10 13 14 13 13 13 13 13 13 12 13 14 14 13 13 12 12 12 12 12 12 13 13 14 14 15 15 15 15 16 16 16 16 17 17 17 18 18 18 18 18 18 19 20 20 21 21 21 22 22
12 11 10 9 8 7 8 8 8 9 10 10 11 11 11 11 12 13 12 12 12 12 12 11 10 10 9 9 7 6 6 6 6 6 5 5 6 5 4 4 5 6 7 8 8 8 9 10 10 10 8 6 6 8 9 11 14 14 14 13 13 13 14 14 14 13 12 11 11 11 12 12 12 12 13 14 14 15 15 15 16 16 16 16 16 16 17 17 17 17 16 16 16 17 18 20 21 21 22 22 22 22 22
Wind_Direction
89 88 86 84 83 82 81 78 76 73 72 72 71 71 69 68 68 68 67 66 64 64 63 61 60 59 59 58 57 57 57 56 55 54 52 50 48 47 46 49 51 53 54 56 58 60 63 64 61 57 55 58 59 56 49 42 38 36 37 38 37 36 34 28 20 12 10 9 8 8 8 8 8 8 8 8 8 7 7 7 7 7 8 10 10 11 12 12 12 11 10 10 9 9 8 8 7 7 7 8 8 8 9
92 91 89 88 86 84 82 80 77 74 74 74 73 73 71 70 69 67 66 65 64 63 62 61 60 59 58 57 57 56 56 56 55 54 53 51 49 46 45 47 50 52 53 55 56 57 58 59 56 53 53 54 55 56 53 48 44 43 42 42 41 40 41 34 21 11 8 7 7 6 6 5 4 4 3 3 3 3 2 2 1 1 1 1 2 3 4 5 6 6 6 7 7 7 7 6 6 5 4 4 3 3 3
96 95 92 91 89 87 84 82 79 77 77 76 75 73 72 70 68 67 65 63 62 61 60 60 59 58 57 55 55 55 54 55 54 53 52 51 48 46 43 43 47 50 52 53 54 53 50 52 51 49 49 49 49 49 48 44 42 41 40 40 39 40 43 31 18 8 5 5 6 6 6 4 3 3 2 1 360 359 359 358 357 357 356 355 355 355 355 356 357 358 359 360 1 2 3 4 4 4 3 1 360 359 358
98 98 96 94 92 89 86 83 80 79 78 76 75 73 71 69 66 65 62 60 59 58 57 57 56 55 54 54 53 53 52 52 52 52 51 49 46 44 42 40 41 44 49 51 53 51 41 40 43 45 43 42 41 40 39 36 34 32 32 33 33 35 40 28 14 4 1 3 3 3 3 3 3 2 1 359 358 357 356 355 354 353 352 352 351 350 349 349 350 350 350 352 353 354 356 357 358 359 359 358 358 357 356
99 99 98 96 93 90 87 84 81 79 77 76 74 72 69 66 64 62 59 57 55 53 52 52 52 53 52 51 51 51 50 50 49 48 47 46 43 41 40 37 35 36 41 45 50 50 40 30 31 37 37 36 33 30 28 27 25 23 22 24 23 25 34 26 13 2 359 1 2 1 1 1 1 1 359 358 357 355 354 352 351 350 349 348 347 347 346 345 344 344 344 344 344 346 347 348 349 350 352 353 354 354 353
99 98 97 95 93 90 88 85 83 80 77 74 72 70 67 64 61 58 56 53 51 49 48 47 48 48 48 46 46 47 47 46 46 45 44 42 40 38 35 34 31 29 31 36 43 46 40 26 24 29 29 29 26 21 19 18 16 15 14 15 13 14 22 18 8 359 357 357 358 359 358 357 357 357 357 356 355 353 351 350 348 347 345 344 343 342 342 341 341 340 340 339 339 338 339 340 340 341 343 345 346 348 348
97 97 97 95 94 91 89 86 84 80 76 73 71 68 64 61 58 55 53 50 49 47 45 44 44 43 43 43 42 42 41 42 41 41 39 37 35 33 30 28 26 25 25 27 32 38 39 24 19 21 19 21 19 14 11 9 9 9 8 7 5 6 11 11 3 356 353 354 353 353 353 354 354 353 352 352 350 350 348 347 346 344 342 340 338 337 337 336 336 336 336 335 334 334 333 333 333 333 334 336 338 340 341
96 97 98 98 96 93 90 86 83 79 76 71 68 66 62 59 55 52 50 48 47 46 44 43 42 41 41 40 39 38 38 37 36 36 35 32 30 27 23 21 19 20 21 21 22 27 33 24 15 10 10 13 9 5 3 2 3 3 2 1 359 360 4 3 357 351 348 348 348 348 348 348 348 348 348 347 346 345 344 343 342 341 339 337 334 332 331 330 331 331 331 331 331 330 329 328 328 327 327 328 329 330 332
92 94 97 99 99 97 92 87 83 79 75 71 67 63 60 56 53 51 48 46 45 44 44 43 42 41 40 39 38 37 37 35 34 33 30 28 25 22 18 15 13 14 16 15 14 16 21 20 11 2 3 2 359 357 358 357 358 358 358 355 354 356 1 360 353 347 344 343 343 343 342 343 343 343 343 342 341 340 339 338 337 337 336 334 332 330 327 325 324 323 324 324 325 325 325 324 323 322 322 321 322 322 323
86 88 93 96 98 98 94 89 84 80 76 71 66 61 57 54 51 48 46 44 43 42 43 43 44 44 42 40 38 38 38 37 35 33 30 26 22 19 15 11 10 10 11 10 8 8 11 12 4 356 356 353 352 353 353 353 354 354 353 350 348 352 358 356 349 343 340 338 337 337 336 337 337 337 337 336 335 335 334 333 332 332 331 331 330 328 326 323 320 318 317 317 318 318 319 319 318 318 317 316 315 315 315
78 82 87 89 91 93 92 89 85 80 75 71 66 61 57 53 50 48 45 44 42 42 41 40 41 43 42 39 38 40 41 40 38 35 33 30 25 19 14 11 10 9 9 7 5 5 8 6 358 352 351 350 349 350 350 350 350 351 349 346 344 348 354 351 345 340 337 334 332 331 331 331 332 332 331 331 330 329 329 328 327 327 326 326 326 325 324 322 319 317 314 312 311 311 311 313 312 312 312 311 311 310 309
75 77 82 86 87 87 88 86 83 79 75 70 66 62 57 54 52 50 48 47 45 43 40 35 34 35 35 31 34 37 39 39 37 36 34 31 27 22 18 14 12 10 9 6 5 5 7 3 356 351 350 349 348 348 348 348 348 348 346 342 342 346 350 346 341 337 334 330 328 327 326 327 327 326 326 325 325 324 324 323 322 322 321 321 321 321 320 319 318 316 314 311 308 306 305 306 306 307 307 307 307 306 305
81 80 86 98 100 95 89 85 81 78 73 69 66 63 59 55 51 48 46 45 44 41 38 33 30 30 29 25 27 30 32 31 31 30 28 26 24 21 18 16 13 11 9 8 8 7 6 360 355 352 351 349 346 347 347 347 346 344 342 339 340 344 347 343 338 334 330 328 326 324 323 323 323 321 321 321 320 319 318 318 318 317 317 317 316 316 315 315 315 314 313 311 309 305 303 301 300 301 302 302 303 303 303
102 96 96 101 102 98 89 82 77 73 69 63 60 60 59 54 47 41 37 37 35 33 31 27 27 26 25 21 19 20 20 20 20 19 19 18 17 15 14 13 12 10 10 11 9 5 360 356 353 352 353 350 346 345 346 345 343 341 338 336 338 341 344 340 336 332 328 326 325 323 321 321 320 319 318 317 315 314 314 314 313 313 312 313 312 312 312 311 311 310 310 309 308 306 303 300 298 296 296 297 297 298 299
132 134 119 98 92 91 82 71 66 61 57 50 44 43 49 50 45 38 33 31 27 25 23 19 18 18 16 10 7 6 6 5 6 6 6 6 6 7 7 7 6 6 7 8 4 355 353 351 351 351 352 348 345 344 344 342 339 336 333 332 335 339 341 337 333 330 328 325 324 322 320 319 317 316 314 312 311 309 310 311 310 309 309 309 309 309 307 307 307 307 306 305 305 305 303 301 298 296 294 293 292 293 294
171 172 145 116 99 89 76 62 51 45 41 31 24 23 26 32 28 23 22 21 17 14 13 10 6 4 359 355 354 353 352 350 351 353 355 355 355 356 357 358 359 1 1 359 354 348 347 346 347 348 347 344 342 341 340 339 335 331 329 329 332 335 337 333 329 327 325 324 323 321 319 317 315 314 312 310 308 307 306 307 307 307 307 307 306 305 305 304 304 304 303 303 302 302 301 300 299 297 294 292 290 289 289
191 178 156 137 123 105 79 53 33 25 20 12 4 3 7 13 7 356 344 343 344 345 346 343 342 341 338 341 343 342 338 336 339 343 346 347 347 347 347 349 352 354 351 345 342 342 342 341 341 342 341 338 337 336 335 333 329 327 327 327 330 333 333 329 327 325 323 322 321 320 319 317 314 313 311 309 308 307 306 305 304 304 305 305 304 304 303 302 302 302 301 301 300 299 298 298 298 296 294 292 290 288 287
196 181 163 149 140 124 72 22 7 360 357 352 348 346 349 352 348 339 331 328 326 323 321 319 318 321 325 332 334 331 326 328 331 332 336 338 339 341 341 342 345 344 336 332 333 334 334 334 334 334 334 332 331 330 328 326 325 323 325 325 328 330 330 327 325 325 323 322 321 320 318 317 315 313 312 310 309 307 305 304 303 303 303 303 303 302 301 301 300 299 299 298 298 297 296 296 296 295 294 292 291 289 287
193 177 163 155 146 118 359 350 347 347 345 344 340 338 338 337 333 329 326 323 321 318 316 315 315 319 324 329 328 323 323 326 327 327 326 326 331 335 337 337 336 333 327 326 326 328 328 328 327 327 326 324 324 324 323 321 321 321 323 324 326 328 327 325 324 323 323 322 321 320 318 317 316 314 312 310 308 306 305 304 303 303 302 302 301 300 300 299 298 297 297 296 295 294 294 293 293 293 292 292 292 291 289
193 195 191 139 359 355 350 345 344 343 342 340 338 335 331 330 328 324 321 320 320 319 318 318 320 323 324 326 324 322 322 323 324 324 323 322 324 327 329 330 329 326 322 321 323 323 324 323 323 322 320 317 318 319 319 317 317 319 321 322 324 325 324 322 322 321 321 320 320 319 317 316 315 313 312 310 308 306 305 303 302 302 301 300 299 299 299 298 297 296 296 295 294 293 292 292 291 291 291 291 291 290 290
204 219 249 292 319 331 335 330 329 330 330 329 330 327 317 320 321 320 318 319 319 319 321 322 323 323 323 322 321 320 320 321 322 322 321 322 322 321 320 323 324 323 321 319 320 320 321 321 321 321 318 314 314 315 314 311 314 317 319 320 321 322 321 320 320 320 319 318 318 317 315 315 314 313 311 309 308 306 304 303 302 301 300 299 299 299 298 297 296 295 295 294 293 292 292 291 291 290 290 290 289 289 289
217 227 241 254 271 290 299 301 303 307 309 314 318 317 309 312 314 314 315 317 316 316 320 323 323 320 317 317 317 317 317 319 321 321 321 321 321 320 319 319 321 321 319 318 318 318 318 320 320 320 316 313 312 313 311 310 313 316 317 318 319 320 320 320 319 319 318 317 316 314 314 313 312 311 311 309 308 306 304 303 302 302 301 300 299 299 297 296 296 295 294 293 293 292 292 292 291 291 290 289 289 288 288
228 239 248 253 263 277 290 300 305 305 302 304 309 312 308 310 310 310 311 312 313 315 319 323 320 315 313 313 313 314 315 317 319 320 319 319 319 319 319 319 319 318 317 317 317 316 316 317 318 318 316 313 311 311 310 311 313 316 316 317 318 318 319 319 319 318 317 316 314 313 312 311 310 310 310 309 308 306 305 303 302 302 301 300 299 298 297 296 296 295 294 294 293 292 292 291 291 290 290 289 289 288 287
238 250 258 266 273 279 287 293 297 295 293 297 303 307 303 304 306 306 305 308 312 316 319 319 316 312 311 309 309 310 311 313 316 317 317 318 318 318 318 317 317 315 315 315 315 314 314 315 316 316 315 312 310 310 309 311 313 315 316 317 317 317 318 318 317 316 315 314 313 313 312 311 310 309 309 308 307 306 305 304 303 302 301 300 298 297 297 296 296 296 295 294 293 293 292 292 291 291 290 290 290 289 288
246 255 265 271 274 273 274 280 285 287 289 294 299 300 298 295 299 303 304 307 308 310 313 312 310 308 308 307 307 307 308 311 313 315 314 316 316 316 315 315 314 313 313 313 313 312 312 313 313 314 313 311 309 309 308 310 313 315 316 316 316 317 317 317 316 315 314 313 313 313 312 311 310 309 308 307 307 306 305 304 303 302 301 300 298 297 297 296 296 296 296 295 294 294 293 292 292 291 290 290 290 290 290
248 255 267 275 276 276 276 280 286 290 293 295 296 295 295 292 295 300 302 304 305 306 307 305 302 302 304 306 307 308 310 311 311 312 313 313 313 313 313 313 312 312 311 311 310 310 310 310 310 310 310 309 309 310 309 311 314 316 316 316 316 316 316 316 315 315 314 314 314 313 313 311 310 309 307 307 306 305 304 303 302 301 301 300 298 297 296 296 296 296 295 295 295 295 293 292 291 291 291 291 291 291 291
253 260 267 274 275 275 278 282 287 293 297 298 295 290 290 292 295 298 300 302 303 303 301 301 301 304 305 308 310 311 310 310 311 311 311 312 312 312 312 312 311 311 310 309 308 309 309 309 309 309 308 308 309 310 310 311 314 316 317 316 316 316 316 315 315 314 314 314 314 313 312 311 310 309 308 307 307 306 305 304 303 302 302 301 300 299 298 296 296 295 294 295 295 295 293 292 292 292 291 291 290 290 290
264 267 268 270 273 275 279 284 289 296 300 298 291 285 286 292 295 296 298 300 300 300 297 300 304 307 309 311 311 311 310 311 311 312 311 311 311 311 312 311 311 310 309 308 307 307 307 308 308 308 308 308 308 308 309 311 314 317 318 317 317 316 315 315 314 314 314 315 315 314 313 311 311 311 310 310 309 309 308 308 307 306 305 304 302 301 300 298 297 296 295 294 294 294 293 293 292 291 291 291 290 290 289
270 270 271 274 277 280 283 286 291 297 297 292 285 282 286 291 294 296 298 299 298 296 297 302 306 309 311 311 311 311 310 312 312 312 311 311 311 310 311 312 311 310 309 308 307 306 306 307 307 308 308 308 308 307 308 311 315 318 318 318 317 316 315 314 313 314 314 315 316 315 314 313 312 312 314 314 313 313 313 312 312 311 310 307 306 304 303 301 299 297 296 295 294 293 293 292 292 291 291 290 290 289 289
273 274 278 280 281 281 284 287 289 289 284 281 280 282 286 289 291 294 297 297 296 297 301 306 309 311 311 311 310 311 311 311 312 313 312 311 309 308 310 311 311 310 309 307 307 306 307 308 309 310 310 310 309 308 308 310 314 317 318 318 317 315 314 313 313 314 315 317 317 317 316 316 315 315 319 320 320 319 319 318 317 317 315 313 311 308 306 305 303 301 299 298 296 295 294 293 292 292 291 290 290 289 289
278 280 285 286 284 282 283 282 276 269 269 274 279 283 284 286 287 289 290 292 296 299 303 306 308 309 310 309 309 309 308 310 312 312 312 311 309 307 307 309 310 310 309 308 308 308 309 310 311 312 312 311 311 310 309 311 313 315 317 318 317 315 314 314 314 316 317 318 319 318 319 320 321 323 327 328 327 326 326 325 324 322 321 319 317 314 312 310 309 307 304 302 300 298 297 295 294 293 293 292 291 290 290
288 288 290 290 288 284 278 269 253 251 263 269 274 278 280 281 283 284 286 291 295 298 302 305 306 307 307 307 305 304 305 307 310 312 311 311 309 306 305 307 309 309 308 309 310 310 309 311 312 313 312 311 311 311 311 311 312 314 316 317 316 316 315 315 316 317 320 321 322 322 322 324 327 330 334 334 334 333 332 332 330 329 327 326 324 322 320 317 313 311 309 307 304 303 300 299 297 296 295 295 293 292 292
287 288 290 289 280 263 251 246 247 254 261 265 270 275 280 280 280 280 284 288 291 294 297 299 299 299 300 301 300 302 305 307 309 310 311 310 308 306 305 308 308 308 309 310 311 309 308 310 312 312 312 311 311 311 310 310 311 313 313 315 316 316 316 317 318 320 322 324 327 330 332 336 338 338 337 338 338 337 336 335 334 333 333 331 330 328 326 322 319 317 314 312 309 307 304 303 301 300 298 297 296 295 294
278 277 275 263 249 242 246 250 258 263 263 266 271 276 279 279 279 281 283 285 287 290 291 292 293 295 296 298 300 303 305 307 309 311 311 309 306 305 306 308 308 307 309 310 310 308 308 309 311 311 311 310 310 310 310 309 309 310 312 313 315 315 316 318 320 323 326 330 336 341 346 350 347 344 340 337 336 337 337 337 336 336 335 335 334 332 329 326 324 322 319 317 314 311 309 307 305 304 302 301 299 298 297
272 272 267 261 255 254 259 261 265 267 267 271 275 277 278 279 282 284 284 286 288 289 291 293 295 296 297 300 303 303 302 306 310 312 311 307 304 305 307 308 307 307 309 310 309 308 308 309 310 310 309 309 309 309 309 307 308 310 312 313 314 315 317 319 322 326 332 339 345 346 347 345 342 339 335 332 330 330 331 333 334 334 335 335 335 333 331 330 329 326 323 321 319 316 314 311 309 307 306 304 302 301 299
265 265 263 261 259 257 258 259 261 266 272 276 278 279 280 281 282 284 286 289 289 286 288 294 296 297 298 301 303 302 301 303 308 311 309 306 305 306 309 308 306 307 309 310 308 308 309 310 309 308 307 307 308 308 307 305 307 309 311 311 312 315 317 321 325 331 338 342 341 337 334 332 330 328 327 325 323 322 322 323 325 326 328 328 329 330 330 329 328 327 325 323 320 318 317 314 312 310 308 306 305 304 302
256 256 256 256 258 261 263 263 268 274 277 280 281 280 280 280 280 282 286 287 287 286 288 294 296 297 297 300 302 303 304 306 308 308 308 307 307 308 309 308 307 308 309 307 307 309 311 311 308 306 305 306 307 307 305 305 306 308 308 309 311 314 317 321 329 336 335 331 327 326 325 324 323 322 321 320 319 318 317 317 317 317 318 318 319 321 323 324 326 325 324 322 320 317 316 314 312 310 309 307 306 305 303
254 256 257 260 263 266 267 270 277 281 280 281 281 280 279 279 280 282 284 286 287 289 292 296 298 298 298 300 301 303 304 307 308 308 307 307 307 308 307 307 307 308 309 307 309 311 313 311 308 307 306 306 306 305 304 305 305 306 306 308 310 312 314 318 327 332 327 323 321 320 320 319 319 318 318 318 317 317 316 316 315 314 314 314 314 315 317 320 321 322 321 320 317 316 316 313 311 309 308 307 306 304 302
255 257 260 263 264 262 262 273 280 283 282 281 281 280 280 281 282 285 286 286 286 290 295 301 303 302 300 301 304 305 305 307 309 309 307 307 306 306 306 306 308 310 311 311 312 312 312 310 307 306 306 305 304 303 302 303 303 303 303 304 306 307 306 309 320 327 327 325 322 319 317 317 317 316 317 317 317 318 317 317 316 315 314 314 314 314 315 316 318 319 318 318 316 315 314 312 310 309 307 306 305 303 301
257 258 260 261 258 259 269 278 282 283 282 282 281 282 282 282 284 287 289 287 288 292 298 305 309 308 307 307 309 309 308 308 309 309 307 307 306 307 307 307 309 311 313 314 314 312 311 309 307 305 304 302 301 301 301 301 300 299 298 299 298 295 290 295 317 329 330 326 323 320 317 315 314 315 315 316 317 317 318 317 317 316 315 315 314 314 314 315 315 315 316 315 314 312 311 310 309 308 306 304 302 301 300
257 259 259 257 259 269 277 281 283 282 282 281 281 282 284 283 281 283 292 292 294 298 304 310 315 314 311 312 312 312 311 309 308 308 309 309 309 309 308 309 309 311 312 313 312 310 309 308 306 305 302 300 299 299 299 299 298 297 296 294 286 276 273 292 318 328 328 324 321 319 317 315 313 313 313 314 315 316 316 316 316 315 315 314 314 314 315 314 313 312 313 312 311 310 309 308 307 306 305 303 302 300 299
253 257 257 253 261 272 279 281 281 281 280 280 281 282 284 281 279 281 289 296 298 303 310 315 318 317 313 313 313 313 313 312 311 311 312 312 312 310 310 310 309 308 308 308 307 306 306 307 306 305 303 301 299 297 295 296 297 296 295 288 276 265 271 297 317 323 322 321 319 317 316 314 313 312 312 313 313 314 314 314 314 313 313 314 314 314 314 314 312 310 309 309 308 308 307 306 305 304 303 302 301 300 298
249 251 252 250 263 273 280 280 278 278 277 278 281 282 283 281 283 288 292 294 297 304 309 314 318 320 319 316 315 316 317 318 319 318 317 315 313 312 310 309 306 305 305 304 304 304 305 305 304 305 305 303 300 295 294 294 295 295 291 280 268 266 279 300 313 317 318 318 317 316 315 314 314 313 313 313 312 312 312 311 312 312 313 313 314 314 314 313 311 309 307 306 305 305 304 304 303 302 302 300 300 299 298
249 250 250 252 266 275 279 276 274 273 274 276 279 281 279 283 288 293 297 299 303 306 305 313 318 323 325 322 319 319 321 322 322 321 319 316 314 312 310 307 304 302 303 304 304 305 304 303 302 303 303 302 298 296 295 294 294 291 283 270 263 271 287 302 311 314 316 316 316 316 315 316 316 316 315 315 315 314 314 313 313 313 314 314 314 314 313 311 310 308 306 305 304 303 303 302 302 302 301 300 299 298 297
252 257 260 263 270 274 273 270 268 268 271 273 275 277 279 284 289 295 299 304 309 312 308 312 319 324 327 326 324 322 323 322 322 322 320 317 314 311 310 307 303 302 302 303 305 306 305 303 302 300 299 299 298 297 296 295 290 284 276 268 270 282 293 303 309 312 314 315 316 316 316 317 317 318 318 318 318 318 317 316 316 315 315 315 314 313 312 311 309 307 306 305 304 303 303 302 302 301 301 300 300 299 297
256 262 267 269 270 268 264 261 262 265 269 273 277 278 279 284 290 296 301 306 312 316 316 316 320 324 326 327 327 326 326 326 327 327 324 318 312 309 307 306 303 300 300 302 307 310 309 305 300 296 293 294 295 296 295 292 286 277 272 275 283 292 298 304 309 312 313 315 315 315 315 317 317 318 319 319 319 318 317 317 317 317 316 315 315 314 312 311 310 308 307 306 305 305 304 303 302 301 301 301 300 299 298
258 263 266 266 263 259 255 255 259 265 269 274 278 276 265 277 287 293 298 306 313 316 318 320 321 322 322 325 326 326 329 330 332 331 327 319 311 305 303 305 304 299 294 297 304 310 310 304 296 290 288 288 288 288 288 287 287 283 281 284 290 296 301 306 310 312 314 315 314 314 315 315 317 318 319 318 317 316 316 317 317 317 316 316 315 314 313 312 311 310 309 308 307 306 306 304 303 302 301 301 300 299 298
258 261 261 258 253 249 249 253 260 266 271 272 271 262 255 272 283 291 295 302 306 309 313 319 323 323 321 319 318 321 328 332 333 333 328 319 312 311 310 311 309 302 292 289 294 302 305 297 288 283 281 278 275 272 275 286 291 290 288 290 293 297 300 305 308 310 312 312 312 312 313 315 316 317 316 315 314 315 315 316 316 315 315 315 315 315 315 314 313 312 311 310 309 308 307 306 304 302 301 300 300 299 299
257 259 256 250 243 242 247 256 264 269 272 271 264 261 266 279 289 296 301 306 309 311 314 318 321 323 323 320 318 320 325 329 333 334 330 321 320 323 324 322 317 309 298 286 282 288 294 286 279 273 266 260 256 262 276 287 290 289 288 290 292 293 295 297 300 303 306 306 307 309 312 313 314 315 314 313 313 314 314 314 313 313 313 313 314 315 315 314 313 312 312 311 311 309 308 306 304 302 301 300 300 300 299
254 253 248 240 236 239 248 258 265 271 274 275 276 278 285 291 296 300 304 308 311 314 316 316 317 319 321 319 317 317 319 324 332 336 328 326 329 331 329 326 321 314 307 297 285 278 277 271 262 252 247 247 254 266 278 283 285 284 284 285 287 288 289 291 292 294 297 300 303 306 308 309 309 310 311 311 312 312 312 312 311 310 311 311 312 313 312 312 311 311 311 311 310 309 308 307 305 304 303 301 301 301 301
249 244 237 232 233 239 249 259 267 273 277 282 286 289 291 294 297 300 302 305 308 311 314 311 312 315 317 313 309 308 310 320 333 340 332 330 331 329 323 320 319 319 323 324 312 286 258 245 234 228 233 258 275 280 282 281 281 280 281 281 283 285 288 288 288 289 291 295 298 299 299 300 301 304 306 307 308 309 309 309 309 309 309 309 309 309 308 308 308 309 310 310 310 310 309 308 308 307 306 305 304 303 303
241 234 228 228 233 242 252 261 269 276 281 284 285 287 290 292 294 297 300 301 303 306 308 308 309 311 314 312 306 304 308 319 331 338 332 327 325 320 311 310 312 320 336 332 325 300 223 200 201 217 246 281 289 288 286 284 282 281 280 282 285 287 288 288 287 288 290 292 292 292 292 293 295 298 301 302 304 305 305 306 306 306 306 306 306 305 305 305 306 308 309 310 311 310 310 311 311 311 311 311 309 307 306
232 225 224 228 236 245 255 263 271 278 282 280 280 282 288 291 292 296 300 302 303 305 307 307 308 310 311 312 311 308 308 316 323 328 328 326 326 324 320 314 319 332 337 327 317 290 184 163 316 317 311 303 296 291 288 286 283 280 281 285 288 290 290 289 288 289 292 293 294 294 294 295 296 297 298 299 300 301 301 302 303 304 305 305 305 304 303 303 304 306 308 309 310 311 311 313 315 316 316 315 312 309 308
224 220 223 230 239 248 256 263 271 279 282 280 277 278 285 287 289 294 299 302 304 306 308 310 311 311 311 313 315 313 307 311 316 320 323 330 333 333 331 335 325 317 317 311 305 305 333 356 337 326 317 310 302 295 289 282 278 278 282 287 291 293 291 290 291 292 294 296 298 299 299 298 298 298 298 298 298 298 298 299 301 302 303 303 303 303 303 302 303 305 306 307 308 309 310 313 316 317 318 316 313 311 309
219 219 225 233 242 250 257 266 274 280 283 284 281 278 278 276 280 287 295 298 302 305 307 310 312 312 310 312 314 314 313 308 309 313 318 326 335 337 326 322 313 311 316 300 293 316 342 337 327 319 312 311 312 310 303 293 286 285 287 291 293 294 293 293 293 294 296 297 298 299 298 298 298 298 298 298 297 297 297 298 299 299 300 301 301 301 302 302 303 304 305 305 305 306 308 310 313 315 316 315 314 312 310
217 221 228 236 243 250 259 269 276 281 284 286 285 283 281 283 288 294 298 300 303 305 306 308 309 308 306 309 311 312 312 307 305 307 313 316 318 315 311 312 319 329 328 322 324 332 335 329 324 316 310 315 318 314 310 307 302 297 293 292 292 292 292 294 294 295 295 295 296 297 296 297 297 297 297 297 297 297 297 297 297 297 297 298 299 300 300 302 303 304 304 304 304 304 305 306 309 312 315 315 314 313 311
217 223 230 236 242 250 259 268 276 281 285 288 290 291 292 296 300 303 305 307 308 308 307 308 308 307 305 306 308 310 310 309 308 307 310 312 309 301 281 276 286 301 304 315 324 322 318 324 321 303 307 311 310 307 307 307 306 301 294 293 293 293 293 294 296 296 295 295 296 297 296 296 296 296 297 297 297 296 296 296 295 295 295 295 296 297 298 299 301 302 302 303 303 303 303 304 307 310 314 314 314 313 312
219 224 230 235 242 250 260 269 277 283 288 291 294 298 301 305 306 307 308 308 307 307 310 311 311 308 305 308 310 311 308 308 308 310 315 317 311 296 263 245 247 256 265 274 286 301 311 317 313 304 310 311 308 305 305 306 305 303 301 302 301 299 296 297 298 299 298 297 297 297 297 296 295 295 296 296 297 296 296 295 295 294 294 294 294 294 294 296 297 298 299 300 300 301 302 304 307 310 312 312 313 313 312
221 226 230 235 242 251 262 272 280 285 289 294 298 302 306 307 304 304 306 304 304 307 310 312 310 306 305 308 311 311 306 307 308 312 316 317 310 293 266 252 254 258 263 268 275 283 293 300 308 312 315 312 311 310 309 306 304 305 305 305 305 304 301 300 301 301 300 298 298 298 297 296 295 295 296 297 297 297 296 296 295 294 293 292 292 292 292 293 294 295 296 297 299 300 302 304 307 309 310 311 312 312 311
222 226 230 235 243 253 264 274 282 287 291 296 300 303 304 303 302 304 307 307 307 309 311 310 308 306 306 307 307 304 303 307 309 310 313 311 308 304 296 277 272 273 273 274 275 275 275 277 285 297 307 306 309 311 310 307 305 304 303 304 305 306 303 301 302 301 300 299 299 298 298 297 296 296 296 297 298 298 297 296 295 293 291 290 290 290 290 290 291 292 293 295 297 299 301 304 306 309 310 311 311 311 310
223 227 231 236 245 256 267 276 283 288 292 296 300 302 302 302 304 307 310 309 310 311 312 312 310 309 307 306 302 297 296 301 304 303 303 304 305 306 304 293 286 283 282 279 277 274 272 272 274 277 281 289 297 299 301 306 308 308 305 305 306 306 303 300 300 301 301 301 301 301 299 298 297 296 296 297 297 297 296 295 293 292 290 289 289 289 289 289 290 290 291 292 294 296 299 303 306 309 310 310 310 309 309